Weather History for Mosinee, WI

Change the Weather History Date:

Wednesday, April 10, 2013

  Actual Average Record
Temperature  
Mean Temperature 34 °F -  
Max Temperature 39 °F 49 °F 73 °F (2011)
Min Temperature 28 °F 30 °F 21 °F (1997)
Degree Days  
Heating Degree Days 32    
Moisture  
Dew Point 26 °F    
Average Humidity 80    
Maximum Humidity 100    
Minimum Humidity 48    
Precipitation  
Precipitation 0.44 in - - ()
Sea Level Pressure  
Sea Level Pressure 30.06 in    
Wind  
Wind Speed 11 mph (NE)    
Max Wind Speed 20 mph    
Max Gust Speed 29 mph    
Visibility 8 miles    
Events Snow , Thunderstorm    
Averages and records for this station are not official NWS values.
T = Trace of Precipitation, MM = Missing Value Source: NWS Daily Summary

Daily Weather History Graph

Daily Weather History Graph

Search for Another Location

Airport:

Trip Planner

Search our weather history database for the weather conditions in past years. The results will help you decide how hot, cold, wet, or windy it might be!

Date:

Astronomy

Apr. 10, 2013 Rise Set
Actual Time 6:22 AM CDT 7:37 PM CDT
Civil Twilight 5:52 AM CDT 8:08 PM CDT
Nautical Twilight 5:16 AM CDT 8:44 PM CDT
Astronomical Twilight 4:38 AM CDT 9:23 PM CDT
Moon 6:17 AM CDT (4/10) 8:16 PM CDT (4/10)
Length of Visible Light 14h 15m
Length of Day
13h 15m
New Moon, 0% of the Moon is Illuminated
Apr 10
New Moon
Apr 18
First Quarter
Apr 25
Full
May 2
Last Quarter
May 9
New

Hourly Weather History & Observations

Time (CDT) Temp. Windchill Dew Point Humidity Pressure Visibility Wind Dir Wind Speed Gust Speed Precip Events Conditions
12:15 AM 32.0 °F 23.6 °F 28.4 °F 87% 30.06 in 10.0 mi NNE 10.4 mph - 0.01 in Thunderstorm Overcast
12:35 AM 32.0 °F 28.7 °F 28.4 °F 87% 30.11 in 7.0 mi East 3.5 mph - 0.04 in   Scattered Clouds
12:55 AM 32.0 °F - 28.4 °F 87% 30.16 in 4.0 mi Calm Calm - 0.10 in Snow Light Snow
1:15 AM 32.0 °F 24.8 °F 30.2 °F 93% 30.15 in 3.0 mi North 8.1 mph - 0.05 in Snow Light Snow
1:35 AM 30.2 °F 19.3 °F 30.2 °F 100% 30.14 in 1.2 mi NNE 15.0 mph - 0.12 in Snow Light Snow
1:55 AM 30.2 °F 17.8 °F 28.4 °F 93% 30.11 in 1.2 mi NE 19.6 mph 25.3 mph 0.17 in Snow Light Snow
2:15 AM 28.4 °F 16.6 °F 28.4 °F 100% 30.11 in 1.0 mi NE 16.1 mph 23.0 mph 0.03 in Snow Light Snow
2:55 AM 30.2 °F 19.3 °F 30.2 °F 100% 30.07 in 4.0 mi NE 15.0 mph - 0.07 in Snow Light Snow
3:15 AM 30.2 °F 20.2 °F 30.2 °F 100% 30.09 in 5.0 mi NNE 12.7 mph - 0.02 in Snow Light Snow
3:35 AM 30.2 °F 21.9 °F 28.4 °F 93% 30.11 in 4.0 mi North 9.2 mph - 0.03 in Snow Light Snow
3:55 AM 28.4 °F 19.7 °F 28.4 °F 100% 30.11 in 1.2 mi NNE 9.2 mph - 0.05 in Snow Light Snow
4:15 AM 28.4 °F 19.7 °F 28.4 °F 100% 30.11 in 1.8 mi NNE 9.2 mph - 0.02 in Snow Light Snow
4:35 AM 28.4 °F 18.0 °F 28.4 °F 100% 30.04 in 2.5 mi ENE 12.7 mph - 0.05 in Snow Light Snow
4:55 AM 28.4 °F 19.1 °F 28.4 °F 100% 30.04 in 10.0 mi NNE 10.4 mph 28.8 mph 0.05 in Snow Light Snow
5:15 AM 28.4 °F 18.0 °F 28.4 °F 100% 30.01 in 10.0 mi ENE 12.7 mph 20.7 mph N/A   Mostly Cloudy
5:35 AM 28.4 °F 19.7 °F 28.4 °F 100% 30.04 in 10.0 mi ENE 9.2 mph - N/A   Mostly Cloudy
5:50 AM 28.4 °F 19.7 °F 28.4 °F 100% 30.08 in 10.0 mi NE 9.2 mph - N/A   Overcast
6:53 AM 28.4 °F 20.4 °F 28.4 °F 100% 30.10 in 10.0 mi NNE 8.1 mph - N/A   Overcast
7:53 AM 28.4 °F 19.1 °F 28.4 °F 100% 30.04 in 10.0 mi NNE 10.4 mph - N/A   Mostly Cloudy
8:50 AM 30.2 °F 18.9 °F 26.6 °F 86% 30.00 in 10.0 mi NE 16.1 mph 24.2 mph N/A   Scattered Clouds
9:45 AM 32.0 °F 24.8 °F 28.4 °F 87% 30.09 in 10.0 mi NNE 8.1 mph 12.7 mph N/A   Overcast
10:53 AM 33.8 °F 23.5 °F 28.4 °F 81% 30.07 in 10.0 mi NE 16.1 mph 21.9 mph N/A   Overcast
11:45 AM 35.6 °F 25.5 °F 28.4 °F 75% 30.08 in 10.0 mi ENE 17.3 mph - N/A   Overcast
1:45 PM 35.6 °F 26.6 °F 28.4 °F 75% 30.07 in 10.0 mi NE 13.8 mph - N/A   Overcast
2:45 PM 37.4 °F 27.5 °F 26.6 °F 65% 30.06 in 10.0 mi ENE 18.4 mph - N/A   Overcast
3:50 PM 37.4 °F 29.8 °F 24.8 °F 60% 30.06 in 10.0 mi ENE 11.5 mph 17.3 mph N/A   Overcast
4:45 PM 37.4 °F 30.3 °F 24.8 °F 60% 30.03 in 10.0 mi ENE 10.4 mph - N/A   Overcast
5:45 PM 37.4 °F 29.3 °F 23.0 °F 56% 30.02 in 10.0 mi NE 12.7 mph - N/A   Overcast
6:45 PM 39.2 °F 31.2 °F 21.2 °F 49% 30.00 in 10.0 mi NE 13.8 mph 19.6 mph N/A   Overcast
7:45 PM 37.4 °F 29.8 °F 21.2 °F 52% 30.00 in 10.0 mi NE 11.5 mph - N/A   Overcast
8:45 PM 37.4 °F 28.9 °F 19.4 °F 48% 29.99 in 10.0 mi ENE 13.8 mph 18.4 mph N/A   Overcast
9:45 PM 35.6 °F 26.2 °F 19.4 °F 52% 30.03 in 10.0 mi ENE 15.0 mph 23.0 mph N/A   Overcast
10:15 PM 33.8 °F 23.2 °F 19.4 °F 56% 30.01 in 10.0 mi ENE 17.3 mph 25.3 mph N/A   Mostly Cloudy
10:35 PM 33.8 °F 23.5 °F 21.2 °F 60% 30.01 in 10.0 mi ENE 16.1 mph 26.5 mph N/A   Mostly Cloudy
10:55 PM 33.8 °F 23.5 °F 21.2 °F 60% 30.00 in 10.0 mi ENE 16.1 mph 24.2 mph N/A   Mostly Cloudy
11:15 PM 33.8 °F 23.5 °F 21.2 °F 60% 29.99 in 10.0 mi ENE 16.1 mph 21.9 mph N/A   Mostly Cloudy
11:35 PM 32.0 °F 20.8 °F 19.4 °F 60% 29.99 in 10.0 mi ENE 17.3 mph 24.2 mph N/A   Mostly Cloudy
11:55 PM 32.0 °F 20.8 °F 21.2 °F 64% 29.98 in 10.0 mi ENE 17.3 mph 20.7 mph N/A   Scattered Clouds